Time,TemperatureF,DewpointF,PressureIn,WindDirection,WindDirectionDegrees,WindSpeedMPH,WindSpeedGustMPH,Humidity,HourlyPrecipIn,Conditions,Clouds,dailyrainin,SoftwareType,DateUTC
2013-03-09 07:51:00,33.2,27.1,30.39,NW,310,0.0,0.0,78,0.00,,,0.00,Wunderground v.1.15,2013-03-09 12:51:00,
2013-03-09 07:52:00,33.4,27.3,30.39,NW,310,0.0,0.0,78,0.00,,,0.00,Wunderground v.1.15,2013-03-09 12:52:00,
2013-03-09 07:57:00,34.5,27.7,30.40,NW,310,0.0,0.0,76,0.00,,,0.00,Wunderground v.1.15,2013-03-09 12:57:00,
2013-03-09 08:02:00,35.3,28.2,30.40,NW,310,0.0,0.0,75,0.00,,,0.00,Wunderground v.1.15,2013-03-09 13:02:00,
2013-03-09 08:03:00,35.4,28.3,30.40,NW,310,0.0,0.0,75,0.00,,,0.00,Wunderground v.1.15,2013-03-09 13:03:00,
2013-03-09 08:08:00,35.7,28.6,30.41,NW,310,0.0,0.0,75,0.00,,,0.00,Wunderground v.1.15,2013-03-09 13:08:00,
2013-03-09 08:13:00,36.1,28.6,30.41,NW,310,0.0,0.0,74,0.00,,,0.00,Wunderground v.1.15,2013-03-09 13:13:00,
2013-03-09 08:18:00,36.4,28.6,30.41,NW,310,0.0,0.0,73,0.00,,,0.00,Wunderground v.1.15,2013-03-09 13:18:00,
2013-03-09 08:24:00,36.7,28.5,30.41,NW,310,0.0,0.0,72,0.00,,,0.00,Wunderground v.1.15,2013-03-09 13:24:00,
2013-03-09 08:29:00,37.9,29.3,30.41,NW,310,0.0,0.0,71,0.00,,,0.00,Wunderground v.1.15,2013-03-09 13:29:00,
2013-03-09 08:34:00,38.8,29.5,30.42,NW,310,0.0,0.0,69,0.00,,,0.00,Wunderground v.1.15,2013-03-09 13:34:00,
2013-03-09 08:40:00,39.1,29.4,30.42,NW,310,0.0,0.0,68,0.00,,,0.00,Wunderground v.1.15,2013-03-09 13:40:00,
2013-03-09 08:45:00,39.8,30.5,30.41,NW,310,0.0,0.0,69,0.00,,,0.00,Wunderground v.1.15,2013-03-09 13:45:00,
2013-03-09 08:50:00,40.0,30.3,30.41,NW,310,0.0,0.0,68,0.00,,,0.00,Wunderground v.1.15,2013-03-09 13:50:00,
2013-03-09 08:55:00,40.2,30.5,30.41,NW,310,0.0,0.0,68,0.00,,,0.00,Wunderground v.1.15,2013-03-09 13:55:00,
2013-03-09 09:01:00,40.6,29.7,30.42,NNW,333,1.0,9.0,65,0.00,,,0.00,Wunderground v.1.15,2013-03-09 14:01:00,
2013-03-09 09:06:00,40.3,29.5,30.42,NW,317,3.0,9.0,65,0.00,,,0.00,Wunderground v.1.15,2013-03-09 14:06:00,
2013-03-09 09:11:00,40.0,28.8,30.42,NW,304,6.0,6.0,64,0.00,,,0.00,Wunderground v.1.15,2013-03-09 14:11:00,
2013-03-09 09:17:00,40.1,29.6,30.42,NNW,338,6.0,9.0,66,0.00,,,0.00,Wunderground v.1.15,2013-03-09 14:17:00,
2013-03-09 09:22:00,40.2,29.7,30.41,NNW,338,6.0,8.0,66,0.00,,,0.00,Wunderground v.1.15,2013-03-09 14:22:00,
2013-03-09 09:27:00,40.2,28.6,30.41,NNW,327,7.0,8.0,63,0.00,,,0.00,Wunderground v.1.15,2013-03-09 14:27:00,
2013-03-09 09:33:00,40.4,29.6,30.41,North,355,7.0,8.0,65,0.00,,,0.00,Wunderground v.1.15,2013-03-09 14:33:00,
2013-03-09 09:38:00,40.7,29.8,30.41,North,355,6.0,9.0,65,0.00,,,0.00,Wunderground v.1.15,2013-03-09 14:38:00,
2013-03-09 09:43:00,40.9,29.7,30.41,NNW,345,7.0,8.0,64,0.00,,,0.00,Wunderground v.1.15,2013-03-09 14:43:00,
2013-03-09 09:48:00,41.1,30.2,30.41,NNW,341,7.0,10.0,65,0.00,,,0.00,Wunderground v.1.15,2013-03-09 14:48:00,
2013-03-09 09:54:00,41.3,28.9,30.41,NNW,339,6.0,7.0,61,0.00,,,0.00,Wunderground v.1.15,2013-03-09 14:54:00,
2013-03-09 09:59:00,41.3,30.4,30.41,NNW,337,6.0,7.0,65,0.00,,,0.00,Wunderground v.1.15,2013-03-09 14:59:00,
2013-03-09 10:04:00,41.6,29.9,30.41,NNW,341,6.0,8.0,63,0.00,,,0.00,Wunderground v.1.15,2013-03-09 15:04:00,
2013-03-09 10:10:00,41.6,29.5,30.41,NW,321,6.0,6.0,62,0.00,,,0.00,Wunderground v.1.15,2013-03-09 15:10:00,
2013-03-09 10:15:00,41.9,30.2,30.40,NNW,334,5.0,7.0,63,0.00,,,0.00,Wunderground v.1.15,2013-03-09 15:15:00,
2013-03-09 10:21:00,42.5,30.8,30.40,NNW,334,4.0,8.0,63,0.00,,,0.00,Wunderground v.1.15,2013-03-09 15:21:00,
2013-03-09 10:26:00,42.5,29.2,30.40,NNW,338,3.0,8.0,59,0.00,,,0.00,Wunderground v.1.15,2013-03-09 15:26:00,
2013-03-09 10:31:00,42.6,29.7,30.40,NNW,340,3.0,6.0,60,0.00,,,0.00,Wunderground v.1.15,2013-03-09 15:31:00,
2013-03-09 10:36:00,43.1,31.0,30.40,NNW,336,3.0,6.0,62,0.00,,,0.00,Wunderground v.1.15,2013-03-09 15:36:00,
2013-03-09 10:42:00,43.3,30.7,30.39,NNW,336,2.0,8.0,61,0.00,,,0.00,Wunderground v.1.15,2013-03-09 15:42:00,
2013-03-09 10:47:00,43.7,30.7,30.39,North,355,4.0,8.0,60,0.00,,,0.00,Wunderground v.1.15,2013-03-09 15:47:00,
2013-03-09 10:53:00,43.9,29.6,30.39,NNW,333,4.0,7.0,57,0.00,,,0.00,Wunderground v.1.15,2013-03-09 15:53:00,
2013-03-09 10:58:00,44.2,29.9,30.39,NNW,332,3.0,7.0,57,0.00,,,0.00,Wunderground v.1.15,2013-03-09 15:58:00,
2013-03-09 11:04:00,44.3,29.6,30.39,NNW,336,3.0,4.0,56,0.00,,,0.00,Wunderground v.1.15,2013-03-09 16:04:00,
2013-03-09 11:09:00,44.9,29.2,30.39,NNW,337,3.0,6.0,54,0.00,,,0.00,Wunderground v.1.15,2013-03-09 16:09:00,
2013-03-09 11:14:00,45.0,29.8,30.39,North,349,3.0,6.0,55,0.00,,,0.00,Wunderground v.1.15,2013-03-09 16:14:00,
2013-03-09 11:19:00,45.8,31.9,30.39,West,259,2.0,6.0,58,0.00,,,0.00,Wunderground v.1.15,2013-03-09 16:19:00,
2013-03-09 11:25:00,45.8,30.5,30.39,NNW,332,3.0,7.0,55,0.00,,,0.00,Wunderground v.1.15,2013-03-09 16:25:00,
2013-03-09 11:30:00,45.8,30.1,30.39,NNW,329,4.0,4.0,54,0.00,,,0.00,Wunderground v.1.15,2013-03-09 16:30:00,
2013-03-09 11:36:00,45.8,29.6,30.39,NNW,331,3.0,5.0,53,0.00,,,0.00,Wunderground v.1.15,2013-03-09 16:36:00,
2013-03-09 11:41:00,46.3,29.1,30.39,NNW,332,2.0,2.0,51,0.00,,,0.00,Wunderground v.1.15,2013-03-09 16:41:00,
2013-03-09 11:46:00,46.9,29.7,30.39,NNW,332,1.0,4.0,51,0.00,,,0.00,Wunderground v.1.15,2013-03-09 16:46:00,
2013-03-09 11:51:00,47.2,30.9,30.39,NNW,332,1.0,3.0,53,0.00,,,0.00,Wunderground v.1.15,2013-03-09 16:51:00,
2013-03-09 11:57:00,47.5,30.3,30.39,NNW,337,2.0,7.0,51,0.00,,,0.00,Wunderground v.1.15,2013-03-09 16:57:00,
2013-03-09 12:02:00,47.3,29.6,30.38,NNW,338,4.0,6.0,50,0.00,,,0.00,Wunderground v.1.15,2013-03-09 17:02:00,
2013-03-09 12:07:00,47.5,30.3,30.38,NNW,344,4.0,6.0,51,0.00,,,0.00,Wunderground v.1.15,2013-03-09 17:07:00,
2013-03-09 12:13:00,47.9,29.1,30.37,NNW,344,3.0,4.0,48,0.00,,,0.00,Wunderground v.1.15,2013-03-09 17:13:00,
2013-03-09 12:18:00,48.3,30.0,30.37,NNW,338,2.0,8.0,49,0.00,,,0.00,Wunderground v.1.15,2013-03-09 17:18:00,
2013-03-09 12:23:00,48.6,30.8,30.37,NNW,337,2.0,2.0,50,0.00,,,0.00,Wunderground v.1.15,2013-03-09 17:23:00,
2013-03-09 12:29:00,49.2,29.8,30.36,North,11,1.0,3.0,47,0.00,,,0.00,Wunderground v.1.15,2013-03-09 17:29:00,
2013-03-09 12:34:00,49.7,32.3,30.36,North,355,1.0,5.0,51,0.00,,,0.00,Wunderground v.1.15,2013-03-09 17:34:00,
2013-03-09 12:39:00,49.8,29.8,30.36,North,355,1.0,5.0,46,0.00,,,0.00,Wunderground v.1.15,2013-03-09 17:39:00,
2013-03-09 12:45:00,50.5,31.5,30.36,North,360,3.0,6.0,48,0.00,,,0.00,Wunderground v.1.15,2013-03-09 17:45:00,
2013-03-09 12:50:00,50.8,30.7,30.35,North,360,3.0,3.0,46,0.00,,,0.00,Wunderground v.1.15,2013-03-09 17:50:00,
2013-03-09 12:56:00,50.6,31.1,30.35,North,355,2.0,5.0,47,0.00,,,0.00,Wunderground v.1.15,2013-03-09 17:56:00,
2013-03-09 13:02:00,51.0,30.9,30.34,North,355,2.0,4.0,46,0.00,,,0.00,Wunderground v.1.15,2013-03-09 18:02:00,
2013-03-09 13:07:00,51.4,31.8,30.34,North,355,2.0,4.0,47,0.00,,,0.00,Wunderground v.1.15,2013-03-09 18:07:00,
2013-03-09 13:12:00,51.4,31.8,30.34,NNW,336,3.0,6.0,47,0.00,,,0.00,Wunderground v.1.15,2013-03-09 18:12:00,
2013-03-09 13:18:00,51.6,30.4,30.34,NNW,342,3.0,6.0,44,0.00,,,0.00,Wunderground v.1.15,2013-03-09 18:18:00,
2013-03-09 13:23:00,51.7,29.9,30.33,NNW,342,2.0,3.0,43,0.00,,,0.00,Wunderground v.1.15,2013-03-09 18:23:00,
2013-03-09 13:29:00,52.3,30.4,30.33,NNW,345,1.0,4.0,43,0.00,,,0.00,Wunderground v.1.15,2013-03-09 18:29:00,
2013-03-09 13:34:00,52.6,31.3,30.33,NNW,345,1.0,1.0,44,0.00,,,0.00,Wunderground v.1.15,2013-03-09 18:34:00,
2013-03-09 13:39:00,53.2,32.4,30.33,NNW,331,1.0,5.0,45,0.00,,,0.00,Wunderground v.1.15,2013-03-09 18:39:00,
2013-03-09 13:45:00,53.5,33.2,30.32,NW,321,2.0,8.0,46,0.00,,,0.00,Wunderground v.1.15,2013-03-09 18:45:00,
2013-03-09 13:50:00,53.5,31.5,30.32,NW,323,2.0,2.0,43,0.00,,,0.00,Wunderground v.1.15,2013-03-09 18:50:00,
2013-03-09 13:56:00,53.8,31.2,30.32,NW,322,2.0,5.0,42,0.00,,,0.00,Wunderground v.1.15,2013-03-09 18:56:00,
2013-03-09 14:01:00,53.8,31.2,30.32,NW,322,1.0,1.0,42,0.00,,,0.00,Wunderground v.1.15,2013-03-09 19:01:00,
2013-03-09 14:07:00,53.9,30.1,30.32,NW,323,1.0,4.0,40,0.00,,,0.00,Wunderground v.1.15,2013-03-09 19:07:00,
2013-03-09 14:12:00,54.1,31.5,30.32,NW,323,2.0,3.0,42,0.00,,,0.00,Wunderground v.1.15,2013-03-09 19:12:00,
2013-03-09 14:18:00,54.1,29.0,30.32,NW,323,2.0,3.0,38,0.00,,,0.00,Wunderground v.1.15,2013-03-09 19:18:00,
2013-03-09 14:24:00,54.4,29.9,30.32,NW,323,1.0,4.0,39,0.00,,,0.00,Wunderground v.1.15,2013-03-09 19:24:00,
2013-03-09 14:29:00,54.6,31.9,30.32,NW,323,1.0,4.0,42,0.00,,,0.00,Wunderground v.1.15,2013-03-09 19:29:00,
2013-03-09 14:34:00,54.7,29.6,30.32,NW,323,1.0,2.0,38,0.00,,,0.00,Wunderground v.1.15,2013-03-09 19:34:00,
2013-03-09 14:40:00,55.1,30.6,30.32,NW,323,0.0,0.0,39,0.00,,,0.00,Wunderground v.1.15,2013-03-09 19:40:00,
2013-03-09 14:45:00,55.5,29.6,30.32,NW,323,0.0,1.0,37,0.00,,,0.00,Wunderground v.1.15,2013-03-09 19:45:00,
2013-03-09 14:51:00,55.9,30.6,30.32,NW,322,0.0,0.0,38,0.00,,,0.00,Wunderground v.1.15,2013-03-09 19:51:00,
2013-03-09 14:56:00,56.6,31.9,30.32,NW,322,0.0,4.0,39,0.00,,,0.00,Wunderground v.1.15,2013-03-09 19:56:00,
2013-03-09 15:01:00,56.8,30.8,30.32,NW,321,2.0,2.0,37,0.00,,,0.00,Wunderground v.1.15,2013-03-09 20:01:00,
2013-03-09 15:07:00,56.8,31.4,30.31,NW,321,2.0,2.0,38,0.00,,,0.00,Wunderground v.1.15,2013-03-09 20:07:00,
2013-03-09 15:12:00,56.4,31.7,30.31,NW,321,1.0,2.0,39,0.00,,,0.00,Wunderground v.1.15,2013-03-09 20:12:00,
2013-03-09 15:18:00,56.5,31.2,30.31,NW,321,2.0,4.0,38,0.00,,,0.00,Wunderground v.1.15,2013-03-09 20:18:00,
2013-03-09 15:24:00,56.4,31.7,30.31,NW,321,2.0,2.0,39,0.00,,,0.00,Wunderground v.1.15,2013-03-09 20:24:00,
2013-03-09 15:30:00,57.1,33.0,30.30,NW,321,1.0,2.0,40,0.00,,,0.00,Wunderground v.1.15,2013-03-09 20:30:00,
2013-03-09 15:35:00,57.0,31.6,30.30,NW,321,1.0,3.0,38,0.00,,,0.00,Wunderground v.1.15,2013-03-09 20:35:00,
2013-03-09 15:41:00,57.2,31.1,30.30,NW,321,1.0,1.0,37,0.00,,,0.00,Wunderground v.1.15,2013-03-09 20:41:00,
2013-03-09 15:46:00,57.4,32.6,30.30,NW,321,2.0,4.0,39,0.00,,,0.00,Wunderground v.1.15,2013-03-09 20:46:00,
2013-03-09 15:52:00,56.9,31.5,30.30,NW,321,2.0,2.0,38,0.00,,,0.00,Wunderground v.1.15,2013-03-09 20:52:00,
2013-03-09 15:57:00,56.7,30.7,30.30,NW,321,2.0,3.0,37,0.00,,,0.00,Wunderground v.1.15,2013-03-09 20:57:00,
2013-03-09 16:02:00,56.7,30.7,30.30,NW,321,2.0,3.0,37,0.00,,,0.00,Wunderground v.1.15,2013-03-09 21:02:00,
2013-03-09 16:08:00,57.0,29.6,30.30,NW,321,1.0,3.0,35,0.00,,,0.00,Wunderground v.1.15,2013-03-09 21:08:00,
2013-03-09 16:14:00,57.5,29.3,30.30,NW,321,1.0,2.0,34,0.00,,,0.00,Wunderground v.1.15,2013-03-09 21:14:00,
2013-03-09 16:19:00,58.0,31.2,30.30,NW,321,1.0,2.0,36,0.00,,,0.00,Wunderground v.1.15,2013-03-09 21:19:00,
2013-03-09 16:25:00,58.1,30.6,30.30,NW,321,1.0,3.0,35,0.00,,,0.00,Wunderground v.1.15,2013-03-09 21:25:00,
2013-03-09 16:30:00,57.9,30.4,30.29,NW,321,1.0,1.0,35,0.00,,,0.00,Wunderground v.1.15,2013-03-09 21:30:00,
2013-03-09 16:35:00,57.6,29.4,30.29,NW,322,1.0,2.0,34,0.00,,,0.00,Wunderground v.1.15,2013-03-09 21:35:00,
2013-03-09 16:41:00,57.1,28.2,30.29,NW,325,1.0,1.0,33,0.00,,,0.00,Wunderground v.1.15,2013-03-09 21:41:00,
2013-03-09 16:47:00,57.1,29.7,30.29,NW,325,1.0,1.0,35,0.00,,,0.00,Wunderground v.1.15,2013-03-09 21:47:00,
2013-03-09 16:52:00,57.6,29.4,30.29,NW,325,0.0,3.0,34,0.00,,,0.00,Wunderground v.1.15,2013-03-09 21:52:00,
2013-03-09 16:58:00,58.0,29.0,30.29,NW,325,0.0,3.0,33,0.00,,,0.00,Wunderground v.1.15,2013-03-09 21:58:00,
2013-03-09 17:04:00,58.4,27.9,30.29,NW,325,0.0,0.0,31,0.00,,,0.00,Wunderground v.1.15,2013-03-09 22:04:00,
2013-03-09 17:09:00,58.6,31.0,30.29,NW,325,0.0,0.0,35,0.00,,,0.00,Wunderground v.1.15,2013-03-09 22:09:00,
2013-03-09 17:14:00,58.3,28.5,30.29,NW,325,0.0,1.0,32,0.00,,,0.00,Wunderground v.1.15,2013-03-09 22:14:00,
2013-03-09 17:20:00,57.3,26.9,30.29,NW,325,0.0,0.0,31,0.00,,,0.00,Wunderground v.1.15,2013-03-09 22:20:00,
2013-03-09 17:25:00,56.9,28.1,30.29,NW,325,0.0,0.0,33,0.00,,,0.00,Wunderground v.1.15,2013-03-09 22:25:00,
2013-03-09 17:30:00,56.5,29.8,30.29,NW,325,0.0,0.0,36,0.00,,,0.00,Wunderground v.1.15,2013-03-09 22:30:00,
2013-03-09 17:36:00,56.2,33.4,30.29,NW,325,0.0,0.0,42,0.00,,,0.00,Wunderground v.1.15,2013-03-09 22:36:00,
2013-03-09 17:41:00,56.1,32.7,30.29,NW,325,0.0,0.0,41,0.00,,,0.00,Wunderground v.1.15,2013-03-09 22:41:00,
2013-03-09 17:47:00,55.9,30.6,30.28,NW,325,0.0,0.0,38,0.00,,,0.00,Wunderground v.1.15,2013-03-09 22:47:00,
2013-03-09 17:52:00,55.6,29.7,30.28,NW,325,0.0,0.0,37,0.00,,,0.00,Wunderground v.1.15,2013-03-09 22:52:00,
2013-03-09 17:58:00,54.8,29.7,30.29,NW,325,0.0,0.0,38,0.00,,,0.00,Wunderground v.1.15,2013-03-09 22:58:00,
2013-03-09 18:04:00,53.9,28.2,30.29,NW,325,0.0,0.0,37,0.00,,,0.00,Wunderground v.1.15,2013-03-09 23:04:00,
2013-03-09 18:09:00,53.0,28.0,30.29,NW,325,0.0,0.0,38,0.00,,,0.00,Wunderground v.1.15,2013-03-09 23:09:00,
2013-03-09 18:14:00,52.0,31.8,30.29,NW,325,0.0,0.0,46,0.00,,,0.00,Wunderground v.1.15,2013-03-09 23:14:00,
2013-03-09 18:20:00,50.5,33.5,30.29,NW,325,0.0,0.0,52,0.00,,,0.00,Wunderground v.1.15,2013-03-09 23:20:00,
2013-03-09 18:25:00,48.2,33.7,30.29,NW,325,1.0,2.0,57,0.00,,,0.00,Wunderground v.1.15,2013-03-09 23:25:00,
2013-03-09 18:31:00,45.4,31.9,30.29,NW,325,1.0,1.0,59,0.00,,,0.00,Wunderground v.1.15,2013-03-09 23:31:00,
2013-03-09 18:36:00,43.6,31.4,30.29,NW,325,0.0,1.0,62,0.00,,,0.00,Wunderground v.1.15,2013-03-09 23:36:00,
2013-03-09 18:42:00,41.8,30.1,30.29,NW,325,0.0,0.0,63,0.00,,,0.00,Wunderground v.1.15,2013-03-09 23:42:00,
2013-03-09 18:47:00,40.6,28.6,30.29,NW,325,0.0,0.0,62,0.00,,,0.00,Wunderground v.1.15,2013-03-09 23:47:00,
2013-03-09 18:52:00,39.8,27.8,30.29,NW,325,0.0,0.0,62,0.00,,,0.00,Wunderground v.1.15,2013-03-09 23:52:00,
2013-03-09 18:58:00,39.1,29.8,30.29,NW,325,0.0,0.0,69,0.00,,,0.00,Wunderground v.1.15,2013-03-09 23:58:00,
2013-03-09 19:04:00,38.7,27.9,30.30,NW,325,0.0,0.0,65,0.00,,,0.00,Wunderground v.1.15,2013-03-10 00:04:00,
2013-03-09 19:09:00,38.3,29.4,30.30,NW,325,0.0,0.0,70,0.00,,,0.00,Wunderground v.1.15,2013-03-10 00:09:00,
2013-03-09 19:14:00,37.6,28.3,30.30,NW,325,0.0,0.0,69,0.00,,,0.00,Wunderground v.1.15,2013-03-10 00:14:00,
2013-03-09 19:20:00,37.0,28.5,30.30,NW,325,0.0,0.0,71,0.00,,,0.00,Wunderground v.1.15,2013-03-10 00:20:00,
2013-03-09 19:25:00,36.4,28.6,30.30,NW,325,0.0,0.0,73,0.00,,,0.00,Wunderground v.1.15,2013-03-10 00:25:00,
2013-03-09 19:31:00,35.8,29.0,30.30,NW,325,0.0,0.0,76,0.00,,,0.00,Wunderground v.1.15,2013-03-10 00:31:00,
2013-03-09 19:36:00,35.3,28.8,30.30,NW,325,0.0,0.0,77,0.00,,,0.00,Wunderground v.1.15,2013-03-10 00:36:00,
2013-03-09 19:42:00,34.8,28.6,30.30,NW,325,0.0,1.0,78,0.00,,,0.00,Wunderground v.1.15,2013-03-10 00:42:00,
2013-03-09 19:47:00,34.4,28.6,30.30,NW,325,1.0,2.0,79,0.00,,,0.00,Wunderground v.1.15,2013-03-10 00:47:00,
2013-03-09 19:52:00,34.1,28.3,30.30,NW,325,1.0,2.0,79,0.00,,,0.00,Wunderground v.1.15,2013-03-10 00:52:00,
2013-03-09 19:58:00,33.5,28.0,30.30,NW,325,1.0,2.0,80,0.00,,,0.00,Wunderground v.1.15,2013-03-10 00:58:00,
2013-03-09 20:03:00,33.2,27.7,30.31,NW,325,0.0,1.0,80,0.00,,,0.00,Wunderground v.1.15,2013-03-10 01:03:00,
2013-03-09 20:09:00,33.5,27.7,30.31,NW,325,0.0,1.0,79,0.00,,,0.00,Wunderground v.1.15,2013-03-10 01:09:00,
2013-03-09 20:14:00,33.6,27.8,30.31,NW,325,0.0,0.0,79,0.00,,,0.00,Wunderground v.1.15,2013-03-10 01:14:00,
2013-03-09 20:20:00,33.4,27.9,30.30,NW,325,0.0,0.0,80,0.00,,,0.00,Wunderground v.1.15,2013-03-10 01:20:00,
2013-03-09 20:25:00,33.2,27.1,30.30,NW,325,0.0,0.0,78,0.00,,,0.00,Wunderground v.1.15,2013-03-10 01:25:00,
2013-03-09 20:31:00,33.3,27.8,30.30,NW,325,0.0,0.0,80,0.00,,,0.00,Wunderground v.1.15,2013-03-10 01:31:00,
2013-03-09 20:36:00,33.2,27.4,30.30,NW,325,0.0,0.0,79,0.00,,,0.00,Wunderground v.1.15,2013-03-10 01:36:00,
2013-03-09 20:42:00,33.1,27.3,30.30,NW,325,0.0,1.0,79,0.00,,,0.00,Wunderground v.1.15,2013-03-10 01:42:00,
2013-03-09 20:47:00,33.1,27.9,30.31,NW,325,1.0,2.0,81,0.00,,,0.00,Wunderground v.1.15,2013-03-10 01:47:00,
2013-03-09 20:53:00,33.0,28.1,30.31,NW,325,2.0,2.0,82,0.00,,,0.00,Wunderground v.1.15,2013-03-10 01:53:00,
2013-03-09 20:58:00,32.8,27.6,30.31,NW,325,2.0,2.0,81,0.00,,,0.00,Wunderground v.1.15,2013-03-10 01:58:00,
2013-03-09 21:04:00,32.6,27.4,30.31,NW,325,1.0,2.0,81,0.00,,,0.00,Wunderground v.1.15,2013-03-10 02:04:00,
2013-03-09 21:09:00,32.7,27.2,30.31,NW,325,0.0,2.0,80,0.00,,,0.00,Wunderground v.1.15,2013-03-10 02:09:00,
2013-03-09 21:15:00,32.7,27.5,30.31,NW,325,0.0,0.0,81,0.00,,,0.00,Wunderground v.1.15,2013-03-10 02:15:00,
2013-03-09 21:20:00,32.6,27.4,30.31,NW,325,0.0,1.0,81,0.00,,,0.00,Wunderground v.1.15,2013-03-10 02:20:00,
2013-03-09 21:26:00,32.8,27.3,30.31,NW,325,0.0,1.0,80,0.00,,,0.00,Wunderground v.1.15,2013-03-10 02:26:00,